Regional Weather Roundup
Issued by NWS

Home | Current Version | Previous Version | Text Only | Print | Product List | Glossary Off
Versions: 1 2 3 4 5 6 7 8 9 10 11 12 13 14 15 16 17 18 19 20 21 22 23 24 25 26 27 28 29 30 31 32 33 34 35 36 37 38 39 40 41 42 43 44 45 46 47 48 49 50

000
ASUS43 KLOT 021006
RWRIL

ILLINOIS REGIONAL WEATHER ROUNDUP
NATIONAL WEATHER SERVICE CHICAGO/ROMEOVILLE IL
500 AM CDT TUE SEP 02 2014

NOTE: "FAIR" INDICATES FEW OR NO CLOUDS BELOW 12,000 FEET WITH NO
SIGNIFICANT WEATHER AND/OR OBSTRUCTIONS TO VISIBILITY.

* THESE STATIONS ARE NOT UNDER NWS QUALITY CONTROL. THEY ALSO MAY NOT
  REPORT WEATHER SUCH AS PRECIPITATION OR FOG.

ILZ001-002-007-009-015-016-024-021100-
NORTHWEST ILLINOIS

CITY           SKY/WX    TMP DP  RH WIND       PRES   REMARKS
MOLINE         FOG       63  62  97 CALM      29.88R VSB 1/2
STERLING*      PTCLDY    63  61  94 CALM      29.88S VSB 1
SAVANNA*       FOG       62  61  94 CALM      29.88S VSB 1/4
$$

ILZ003-004-008-010-011-017-018-021100-
NORTH CENTRAL ILLINOIS

CITY           SKY/WX    TMP DP  RH WIND       PRES   REMARKS
ROCKFORD       FOG       63  61  93 CALM      29.89S VSB 1/2
FREEPORT*      FOG       60  59  97 CALM      29.91S VSB 1/4
ROCHELLE*      FOG       62  61  97 CALM      29.89S VSB 1/2
DE KALB*       MOCLDY    62  62  97 CALM      29.89S
PERU*          CLOUDY    67  66  96 SW3       29.88F
$$

ILZ005-006-012>014-019>023-021100-
NORTHEAST ILLINOIS

CITY           SKY/WX    TMP DP  RH WIND       PRES   REMARKS
CHICAGO-OHARE  CLOUDY    68  64  87 W5        29.87S
CHICAGO-MIDWAY CLOUDY    71  68  90 SW3       29.87S
AURORA         CLOUDY    67  64  90 CALM      29.88F
LANSING*         N/A    N/A N/A N/A MISG        N/A
JOLIET*        CLOUDY    67  65  93 CALM      29.88F
WAUKEGAN       MOCLDY    66  64  93 W3        29.87R
DUPAGE AIRPORT FOG       66  64  93 CALM      29.87F VSB 1
KANKAKEE*      CLOUDY    69  67  94 CALM      29.89S
WHEELING       MOCLDY    69  65  86 CALM      29.89R
MORRIS*        CLOUDY    68  68 100 W3        29.87F
ROMEOVILLE*    CLOUDY    66  65  99 CALM      29.87F
NORTHERLY ISL    N/A     72  66  81 W5          N/A
$$

LMZ740>746-021100-
SOUTHERN LAKE MICHIGAN

STATION/POSITION SKY/WX   TEMP    WIND        PRES    VSBY  WAVE
                          AIR SEA DIR/SP/G                  HT/PER
                          (F)     (DEG/KT/KT) (MB)    (MI)  (FT/S)
SOUTHERN BUOY              69 70  270/  6/  8 1011.1R         1/ 4
WAUKEGAN HARBOR            67     260/  5/  7   N/A
HARRISON CRIB              70     300/  3/  5   N/A
BURNHAM HARBOR             72     260/  3/  7   N/A
CALUMET HARBOR             71     220/  3/  5 1010.5S
MICHIGAN CITY              70     190/  9/ 13   N/A
MICHIGAN CITY 6N           71 72  200/  8/ 10   N/A           1/ 3
ST. JOSEPH                 72 72  270/  4/  6   N/A           2/ 4
$$

ILZ025>027-034>036-040-047-049-050-058-095>099-021100-
WEST-CENTRAL ILLINOIS

CITY           SKY/WX    TMP DP  RH WIND       PRES   REMARKS
QUINCY         CLOUDY    70  68  93 W7        29.91R
GALESBURG*     CLOUDY    65  65  99 S3        29.90S FOG
MACOMB*        CLOUDY    69  69  98 W7        29.92S
JACKSONVILLE*  CLOUDY    70  69  96 W3        29.91R
PITTSFIELD*    CLOUDY    69  66  92 CALM      29.91R
$$

ILZ028>032-037-038-041>044-048-051>054-059>061-021100-
CENTRAL ILLINOIS

CITY           SKY/WX    TMP DP  RH WIND       PRES   REMARKS
PONTIAC        CLOUDY    72  70  94 SW6       29.88S
DECATUR        CLOUDY    69  67  93 S7        29.90S
PEORIA         CLOUDY    72  68  87 SW9       29.89S
LACON*         CLOUDY    69  66  92 SW3       29.87F
LINCOLN*       CLOUDY    70  69  94 CALM      29.88R
SPRINGFIELD    CLOUDY    71  68  90 S3        29.90R
TAYLORVILLE    CLOUDY    68  66  94 S7        29.91R
$$

ILZ033-039-045-046-055>057-062-063-021100-
EAST-CENTRAL ILLINOIS

CITY           SKY/WX    TMP DP  RH WIND       PRES   REMARKS
CHAMPAIGN      CLOUDY    69  68  96 S10       29.90F
DANVILLE*      CLOUDY    66  66  97 CALM      29.86F
RANTOUL*       CLOUDY    69  66  90 SW5       29.91S
MATTOON        CLOUDY    67  66  97 S9        29.89F
PARIS*         DRIZZLE   67  66  99 S6        29.91S
$$

ILZ079-100>102-021100-
SOUTHWEST ILLINOIS

CITY           SKY/WX    TMP DP  RH WIND       PRES   REMARKS
BELLEVILLE     LGT RAIN  68  68 100 E12       29.89F
SPARTA*        LGT RAIN  69  68  96 SE5       29.90F
$$

ILZ064>066-069>071-074>076-080>082-084>086-088>090-092>094-021100-
SOUTH-CENTRAL ILLINOIS

CITY           SKY/WX    TMP DP  RH WIND       PRES   REMARKS
CARBONDALE     LGT RAIN  72  68  87 N6        29.96R
CAIRO*         MOCLDY    79  73  80 S6        29.94F HX  82
EFFINGHAM*     RAIN      67  65  91 SE14      29.89F
MARION         CLOUDY    75  72  88 NW8       29.97R
MT. VERNON     CLOUDY    70  64  83 CALM      29.98R
CENTRALIA*     LGT RAIN  68  66  94 SE8       29.93F
SALEM*         RAIN      70  69  97 SE7       29.93F
METROPOLIS*    CLOUDY    77  73  86 S6        29.95S
$$

ILZ067-068-072-073-078-083-087-091-021100-
SOUTHEAST ILLINOIS

CITY           SKY/WX    TMP DP  RH WIND       PRES   REMARKS
LAWRENCEVILLE  LGT RAIN  67  67 100 SE6       29.97F
FLORA*         CLOUDY    67  66  97 SE5       29.96F
FAIRFIELD*     CLOUDY    70  68  94 CALM      29.94F
HARRISBURG*    CLOUDY    73  72  96 N7        29.95R
ROBINSON*      CLOUDY    68  68  99 SE8       29.96F
CARMI*         TSTM      72  72  98 CALM      29.95F VSB 3/4
$$

ABBREVIATIONS USED IN REMARKS
   TC - TEMPERATURE IN CELSIUS
  WCI - WIND CHILL INDEX
   HX - HEAT INDEX
  VSB - VISIBILITY
$$




USA.gov is the U.S. government's official web portal to all federal, state and local government web resources and services.